Regional Weather Roundup
Issued by NWS Sterling, VA

Home | Current Version | Previous Version | Text Only | Print | Product List | Glossary On
Versions: 1 2 3 4 5 6 7 8 9 10 11 12 13 14 15 16 17 18 19 20 21 22 23 24 25 26 27 28
000
ASUS41 KLWX 170510
RWRLWX

REGIONAL WEATHER ROUNDUP
NATIONAL WEATHER SERVICE BALTIMORE MD/WASHINGTON DC
100 AM EDT THU APR 17 2014

Note: "FAIR" indicates few or no clouds below 12,000 feet
with no significant weather and/or obstructions to visibility.
 TC=TEMPERATURE CELSIUS

 * =Non NWS site. Station does not report precipitation (e.g. rain,
    snow, etc.), thunder, or fog.

DCZ001-MDZ009-015-VAZ040>042-051-053>054-170600-
WASHINGTON METRO

CITY           SKY/WX    TMP DP  RH WIND       PRES   REMARKS
WASHINGTON NAT CLEAR     42  23  46 NE8       30.55S
DULLES         CLEAR     31  24  75 CALM      30.54R
ANDREWS AFB    CLEAR     35  23  62 NE3       30.54R
FT BELVOIR     CLEAR     32  27  82 CALM      30.55S
QUANTICO       CLEAR     43  27  53 VRB3      30.56R
LEESBURG*      CLEAR     32  28  86 CALM      30.56R
MANASSAS*      CLEAR     34  30  86 CALM      30.55S
GAITHERSBURG*  CLEAR     36  18  48 CALM      30.56S

$$

MDZ006>007-011-014-170600-
BALTIMORE METRO

CITY           SKY/WX    TMP DP  RH WIND       PRES   REMARKS
BWI AIRPORT    CLEAR     35  24  64 CALM      30.54S
MD SCIENCE CTR   N/A     43  20  39 MISG      30.55R
MARTIN STATE   CLEAR     37  28  70 CALM      30.58R
ANNAPOLIS      CLEAR     44  29  55 E7        30.55R
FORT MEADE*    CLEAR     32  28  86 CALM      30.57R

$$

MDZ012-015-019>023-170600-
MARYLAND EASTERN SHORE

CITY           SKY/WX    TMP DP  RH WIND       PRES   REMARKS
OCEAN CITY     CLEAR     42  29  59 E10       30.54S
SALISBURY      CLEAR     35  29  78 CALM      30.54S
BAY BRIDGE AP* CLEAR     37  28  70 E5        30.56R
CAMBRIDGE*     CLEAR     36  32  87 CALM      30.54S
EASTON*        CLEAR     38  32  80 CALM      30.59S

$$

MDZ017>025-170600-
SOUTHERN MARYLAND

CITY           SKY/WX    TMP DP  RH WIND       PRES   REMARKS
PATUXENT RIVER CLEAR     41  29  62 E10       30.54R
ST INIGOES     CLEAR     36  29  75 NE5       30.53S
LEONARDTOWN*   CLEAR     34  28  80 CALM      30.55S

$$

MDZ003>005-170600-
NORTH CENTRAL MARYLAND

CITY           SKY/WX    TMP DP  RH WIND       PRES   REMARKS
FREDERICK*     CLEAR     32  32 100 CALM      30.58R
HAGERSTOWN APT CLEAR     37  16  42 E5        30.53R
WESTMINSTER*   CLEAR     34  21  60 CALM      30.53S

$$

MDZ501>502-170600-
WESTERN MARYLAND

CITY           SKY/WX    TMP DP  RH WIND       PRES   REMARKS
OAKLAND*       PTCLDY    30   9  40 SE20G25   30.37R WCI  18
CUMBERLAND*    PTCLDY    37  18  44 CALM      30.55R

$$

VAZ025>031-170600-
SHENANDOAH VALLEY

CITY           SKY/WX    TMP DP  RH WIND       PRES   REMARKS
WINCHESTER*    PTCLDY    32  23  69 CALM      30.52R
STAUNTON*      CLEAR     31  26  81 CALM      30.50S

$$

WVZ021-048>050-054>055-170600-
EASTERN WEST VIRGINIA PANHANDLE

CITY           SKY/WX    TMP DP  RH WIND       PRES   REMARKS
MARTINSBURG    CLEAR     34  20  56 CALM      30.53R
PETERSBURG*    PTCLDY    35  31  85 CALM      30.50R

$$

VAZ036>039-050-170600-
CENTRAL FOOTHILLS

CITY           SKY/WX    TMP DP  RH WIND       PRES   REMARKS
CHARLOTTESVILL CLEAR     34  22  61 NE3       30.52R
CULPEPER*      CLEAR     34  27  75 CALM      30.55R

$$

VAZ055>057-170600-
NORTH AND CENTRAL PIEDMONT

CITY           SKY/WX    TMP DP  RH WIND       PRES   REMARKS
FREDERICKSBRG* CLEAR     36  30  80 CALM      30.54S
STAFFORD*      CLEAR     32  31  99 CALM      30.58S

$$

NCZ024-NYZ072-PAZ021-071-VAZ022-071-170600-
OTHER REGIONAL OBSERVATIONS

CITY           SKY/WX    TMP DP  RH WIND       PRES   REMARKS
NEW YORK CITY  CLEAR     39  16  39 NE7       30.61R
PHILADELPHIA   CLEAR     41  15  35 NE12      30.58R
PITTSBURGH     CLOUDY    40  16  37 E13       30.39R
ROANOKE        CLEAR     40  18  41 CALM      30.49R
RICHMOND       CLEAR     38  25  59 NE6       30.52R
RALEIGH        CLEAR     41  26  55 E8        30.48R

$$

ANZ530>537-170600-
MARINE OBSERVATIONS

STATION/POSITION TIME  TEMP    WIND        PRES
                       AIR SEA DIR/SP/G
                 (UTC) (F)     (DEG/KT/KT) (MB)
THOMAS PT LIGHT  0500   42 52  110/ 10/ 11 1035.1R
BALT KEY BRIDGE  0500   43      30/  9/ 11 1034.6S
COVE POINT       0500   42     120/ 10/ 12 1034.1R
LEWISETTA        0500   45 52   70/  9/ 14 1033.5S
SOLOMONS ISLAND  0500      52                N/A
PINEY POINT      0500           60/  3/  4   N/A

$$




USA.gov is the U.S. government's official web portal to all federal, state and local government web resources and services.